TimeCDT,TemperatureF,Dew PointF,Humidity,Sea Level PressureIn,VisibilityMPH,Wind Direction,Wind SpeedMPH,Gust SpeedMPH,PrecipitationIn,Events,Conditions,WindDirDegrees,DateUTC
12:15 AM,60.8,57.7,90,30.17,10.0,SE,13.8,-,N/A,,Clear,130,2013-07-25 05:15:00
12:35 AM,60.3,57.2,90,30.18,10.0,SE,13.8,-,N/A,,Clear,140,2013-07-25 05:35:00
12:55 AM,60.1,56.3,87,30.17,10.0,SE,16.1,-,N/A,,Clear,140,2013-07-25 05:55:00
1:15 AM,60.3,55.6,85,30.17,10.0,SSE,12.7,-,N/A,,Scattered Clouds,150,2013-07-25 06:15:00
1:35 AM,60.4,55.4,83,30.17,10.0,SSE,12.7,-,N/A,,Scattered Clouds,150,2013-07-25 06:35:00
1:55 AM,60.1,55.4,85,30.17,10.0,SSE,8.1,19.6,N/A,,Scattered Clouds,160,2013-07-25 06:55:00
2:15 AM,59.5,55.9,88,30.16,10.0,SSE,9.2,-,N/A,,Clear,160,2013-07-25 07:15:00
2:35 AM,59.5,55.9,88,30.16,10.0,SSE,11.5,-,N/A,,Clear,160,2013-07-25 07:35:00
2:55 AM,59.7,56.3,88,30.15,10.0,SSE,13.8,-,N/A,,Clear,150,2013-07-25 07:55:00
3:15 AM,59.5,56.7,90,30.16,10.0,SSE,12.7,-,N/A,,Clear,160,2013-07-25 08:15:00
3:35 AM,59.4,56.7,91,30.16,10.0,SSE,13.8,19.6,N/A,,Clear,160,2013-07-25 08:35:00
3:55 AM,59.2,56.8,92,30.15,10.0,South,16.1,19.6,N/A,,Scattered Clouds,170,2013-07-25 08:55:00
4:15 AM,58.8,56.3,91,30.13,10.0,South,13.8,-,N/A,,Scattered Clouds,180,2013-07-25 09:15:00
4:35 AM,58.5,56.3,93,30.12,10.0,South,11.5,16.1,N/A,,Clear,180,2013-07-25 09:35:00
4:55 AM,58.1,56.3,94,30.11,10.0,SSW,8.1,-,N/A,,Clear,200,2013-07-25 09:55:00
5:15 AM,58.1,56.3,94,30.11,10.0,SW,5.8,-,N/A,,Clear,230,2013-07-25 10:15:00
5:35 AM,58.1,56.3,94,30.11,10.0,SW,5.8,-,N/A,,Clear,220,2013-07-25 10:35:00
5:55 AM,58.3,56.1,93,30.11,10.0,SW,6.9,-,N/A,,Clear,230,2013-07-25 10:55:00
6:15 AM,58.1,55.9,93,30.11,10.0,South,4.6,-,N/A,,Clear,190,2013-07-25 11:15:00
6:35 AM,57.6,55.8,94,30.11,10.0,SW,4.6,-,N/A,,Clear,230,2013-07-25 11:35:00
6:55 AM,57.2,55.4,94,30.11,10.0,SW,4.6,-,N/A,,Clear,220,2013-07-25 11:55:00
7:15 AM,57.6,55.8,94,30.09,10.0,SSW,4.6,-,N/A,,Clear,200,2013-07-25 12:15:00
7:35 AM,58.1,56.3,94,30.09,10.0,Calm,Calm,-,N/A,,Clear,0,2013-07-25 12:35:00
7:55 AM,59.0,56.7,92,30.09,10.0,SSW,4.6,-,N/A,,Clear,210,2013-07-25 12:55:00
8:15 AM,59.7,56.8,90,30.10,10.0,Calm,Calm,-,N/A,,Clear,0,2013-07-25 13:15:00
8:35 AM,60.1,57.2,90,30.10,10.0,WSW,3.5,-,N/A,,Clear,240,2013-07-25 13:35:00
8:55 AM,61.9,58.1,87,30.10,10.0,WSW,4.6,-,N/A,,Scattered Clouds,250,2013-07-25 13:55:00
9:15 AM,62.8,58.6,86,30.12,10.0,West,6.9,-,N/A,,Scattered Clouds,280,2013-07-25 14:15:00
9:35 AM,63.7,58.8,84,30.12,10.0,West,8.1,-,N/A,,Clear,270,2013-07-25 14:35:00
9:55 AM,64.0,58.3,82,30.13,10.0,West,6.9,-,N/A,,Mostly Cloudy,280,2013-07-25 14:55:00
10:15 AM,65.7,58.8,79,30.15,10.0,NW,8.1,-,N/A,,Mostly Cloudy,310,2013-07-25 15:15:00
10:35 AM,66.2,58.8,77,30.15,10.0,NW,10.4,-,N/A,,Scattered Clouds,320,2013-07-25 15:35:00
10:55 AM,67.8,59.5,75,30.16,10.0,North,10.4,-,N/A,,Scattered Clouds,350,2013-07-25 15:55:00
11:15 AM,67.1,58.3,73,30.16,10.0,North,16.1,20.7,N/A,,Mostly Cloudy,360,2013-07-25 16:15:00
11:35 AM,68.0,58.3,71,30.16,10.0,North,13.8,-,N/A,,Scattered Clouds,360,2013-07-25 16:35:00
11:55 AM,68.4,58.3,70,30.17,10.0,NNE,12.7,-,N/A,,Clear,20,2013-07-25 16:55:00
12:15 PM,70.9,58.3,64,30.17,10.0,North,8.1,-,N/A,,Clear,10,2013-07-25 17:15:00
12:35 PM,71.6,57.9,62,30.17,10.0,North,10.4,-,N/A,,Clear,10,2013-07-25 17:35:00
12:55 PM,74.1,58.5,58,30.18,10.0,North,12.7,-,N/A,,Scattered Clouds,10,2013-07-25 17:55:00
1:15 PM,73.9,57.7,57,30.16,10.0,North,9.2,-,N/A,,Clear,10,2013-07-25 18:15:00
1:35 PM,75.4,57.7,54,30.17,10.0,North,12.7,17.3,N/A,,Clear,10,2013-07-25 18:35:00
1:55 PM,77.4,57.7,51,30.18,10.0,North,15.0,21.9,N/A,,Scattered Clouds,360,2013-07-25 18:55:00
2:15 PM,78.6,57.0,47,30.18,10.0,North,13.8,20.7,N/A,,Scattered Clouds,360,2013-07-25 19:15:00
2:35 PM,78.6,55.6,45,30.18,10.0,North,13.8,20.7,N/A,,Scattered Clouds,360,2013-07-25 19:35:00
2:55 PM,80.1,55.0,42,30.19,10.0,North,16.1,19.6,N/A,,Scattered Clouds,350,2013-07-25 19:55:00
3:15 PM,78.1,55.2,45,30.19,10.0,North,13.8,20.7,N/A,,Scattered Clouds,350,2013-07-25 20:15:00
3:35 PM,78.6,54.7,43,30.19,10.0,North,15.0,19.6,N/A,,Scattered Clouds,10,2013-07-25 20:35:00
3:55 PM,79.9,54.7,42,30.19,10.0,NE,11.5,17.3,N/A,,Scattered Clouds,40,2013-07-25 20:55:00
4:15 PM,77.7,54.5,45,30.19,10.0,NNE,8.1,11.5,N/A,,Mostly Cloudy,20,2013-07-25 21:15:00
4:35 PM,79.2,51.8,38,30.18,10.0,NNE,12.7,18.4,N/A,,Mostly Cloudy,20,2013-07-25 21:35:00
4:55 PM,79.0,53.4,41,30.19,10.0,NE,15.0,-,N/A,,Mostly Cloudy,40,2013-07-25 21:55:00
5:15 PM,80.2,53.1,39,30.19,10.0,ENE,8.1,-,N/A,,Mostly Cloudy,60,2013-07-25 22:15:00
5:35 PM,80.4,50.9,36,30.19,10.0,NE,12.7,18.4,N/A,,Scattered Clouds,50,2013-07-25 22:35:00
5:55 PM,78.3,51.8,40,30.18,10.0,NNE,9.2,-,N/A,,Scattered Clouds,30,2013-07-25 22:55:00
6:15 PM,79.3,48.7,34,30.18,10.0,North,8.1,16.1,N/A,,Clear,360,2013-07-25 23:15:00
6:35 PM,81.0,47.5,31,30.17,10.0,NNE,10.4,16.1,N/A,,Scattered Clouds,20,2013-07-25 23:35:00
6:55 PM,80.6,47.3,31,30.17,10.0,ENE,10.4,-,N/A,,Scattered Clouds,60,2013-07-25 23:55:00
7:15 PM,79.9,48.2,33,30.18,10.0,NNE,13.8,17.3,N/A,,Clear,30,2013-07-26 00:15:00
7:35 PM,77.7,48.0,35,30.18,10.0,NNE,6.9,-,N/A,,Clear,20,2013-07-26 00:35:00
7:55 PM,76.6,48.4,37,30.18,10.0,NE,6.9,-,N/A,,Clear,40,2013-07-26 00:55:00
8:15 PM,76.3,50.9,41,30.19,10.0,ENE,6.9,-,N/A,,Clear,60,2013-07-26 01:15:00
8:35 PM,76.1,50.7,41,30.19,10.0,NE,9.2,-,N/A,,Clear,50,2013-07-26 01:35:00
8:55 PM,73.8,51.4,45,30.19,10.0,NE,5.8,-,N/A,,Clear,50,2013-07-26 01:55:00
9:15 PM,70.9,53.6,54,30.21,10.0,ENE,4.6,-,N/A,,Clear,60,2013-07-26 02:15:00
9:35 PM,68.5,53.6,59,30.21,10.0,NE,4.6,-,N/A,,Clear,50,2013-07-26 02:35:00
9:55 PM,67.5,53.8,61,30.22,10.0,ENE,4.6,-,N/A,,Clear,60,2013-07-26 02:55:00
10:15 PM,66.6,54.5,65,30.23,10.0,ENE,5.8,-,N/A,,Clear,70,2013-07-26 03:15:00
10:35 PM,66.7,53.4,62,30.23,10.0,ENE,6.9,-,N/A,,Clear,70,2013-07-26 03:35:00
10:55 PM,66.6,52.9,61,30.25,10.0,ENE,5.8,-,N/A,,Clear,70,2013-07-26 03:55:00
11:15 PM,65.3,53.4,65,30.26,10.0,ENE,5.8,-,N/A,,Clear,70,2013-07-26 04:15:00
11:35 PM,64.2,54.5,71,30.25,10.0,East,4.6,-,N/A,,Clear,90,2013-07-26 04:35:00
11:55 PM,64.6,54.7,70,30.26,10.0,ENE,6.9,-,N/A,,Clear,70,2013-07-26 04:55:00